Regional Weather Roundup
Issued by NWS

Home | Current Version | Previous Version | Graphics & Text | Print | Product List | Glossary On
Versions: 1 2 3 4 5 6 7 8 9 10 11 12 13 14 15 16 17 18 19 20 21 22 23 24 25 26 27 28 29 30 31 32 33 34 35 36 37 38 39 40 41 42 43 44 45 46 47 48 49 50
000
ASUS43 KLOT 190606
RWRIL

ILLINOIS REGIONAL WEATHER ROUNDUP
NATIONAL WEATHER SERVICE CHICAGO/ROMEOVILLE IL
1200 AM CST FRI DEC 19 2014

NOTE: "FAIR" INDICATES FEW OR NO CLOUDS BELOW 12,000 FEET WITH NO
SIGNIFICANT WEATHER AND/OR OBSTRUCTIONS TO VISIBILITY.

* THESE STATIONS ARE NOT UNDER NWS QUALITY CONTROL. THEY ALSO MAY NOT
  REPORT WEATHER SUCH AS PRECIPITATION OR FOG.

ILZ001-002-007-009-015-016-024-190700-
NORTHWEST ILLINOIS

CITY           SKY/WX    TMP DP  RH WIND       PRES   REMARKS
MOLINE         CLEAR     18  14  84 CALM      30.30S
6HR MIN TEMP:  18; 6HR MAX TEMP:  26;

STERLING*      CLOUDY    23  18  80 CALM      30.30S
SAVANNA*       CLOUDY    25  20  82 CALM      30.30S
$$

ILZ003-004-008-010-011-017-018-190700-
NORTH CENTRAL ILLINOIS

CITY           SKY/WX    TMP DP  RH WIND       PRES   REMARKS
ROCKFORD       CLOUDY    27  20  75 CALM      30.30S
6HR MIN TEMP:  26; 6HR MAX TEMP:  27;

FREEPORT*      CLOUDY    25  20  82 CALM      30.30S
ROCHELLE*      CLOUDY    25  19  80 CALM      30.29R
DE KALB*       CLOUDY    24  19  81 W6        30.27S WCI  17
PERU*          CLEAR     19  17  89 NW5       30.30S WCI  13
$$

ILZ005-006-012>014-019>023-190700-
NORTHEAST ILLINOIS

CITY           SKY/WX    TMP DP  RH WIND       PRES   REMARKS
CHICAGO-OHARE  CLOUDY    27  21  78 NW8       30.26S WCI  19
6HR MIN TEMP:  27; 6HR MAX TEMP:  28;

CHICAGO-MIDWAY FLURRIES  30  21  69 W9        30.26S WCI  22
6HR MIN TEMP:  29; 6HR MAX TEMP:  31; 6HR PCP: TRACE;

AURORA         CLOUDY    26  19  74 W6        30.28S WCI  19
6HR MIN TEMP:  26; 6HR MAX TEMP:  27;

LANSING*       CLOUDY    27  21  77 W5        30.26S WCI  22
JOLIET*        CLOUDY    26  20  80 W5        30.29S WCI  20
WAUKEGAN       CLOUDY    28  22  78 N6        30.25S WCI  22
6HR MIN TEMP:  27; 6HR MAX TEMP:  28;

DUPAGE AIRPORT CLOUDY    27  19  72 NW7       30.26S WCI  19
6HR MIN TEMP:  27; 6HR MAX TEMP:  27;

KANKAKEE*      CLOUDY    24  21  87 W7        30.29R WCI  16
WHEELING       CLOUDY    28  23  81 NW7       30.28S WCI  21
6HR MIN TEMP:  28; 6HR MAX TEMP:  28;

MORRIS*        CLOUDY    25  22  87 W6        30.28S WCI  18
ROMEOVILLE*    CLOUDY    26  21  79 NW7       30.27F WCI  19
NORTHERLY ISL    N/A     29  25  85 W12         N/A  WCI  19
$$

LMZ740>746-190700-
SOUTHERN LAKE MICHIGAN

STATION/POSITION SKY/WX   TEMP    WIND        PRES    VSBY  WAVE
                          AIR SEA DIR/SP/G                  HT/PER
                          (F)     (DEG/KT/KT) (MB)    (MI)  (FT/S)
WAUKEGAN HARBOR            28     340/  5/ 11   N/A
HARRISON CRIB              29     280/ 11/ 13   N/A
BURNHAM HARBOR             28     260/ 10/ 11   N/A
CALUMET HARBOR             29     260/  5/  8 1023.4R
$$

ILZ025>027-034>036-040-047-049-050-058-095>099-190700-
WEST-CENTRAL ILLINOIS

CITY           SKY/WX    TMP DP  RH WIND       PRES   REMARKS
QUINCY         CLOUDY    28  23  81 CALM      30.29S
GALESBURG*     CLOUDY    23  21  90 NE3       30.29S
MACOMB*        CLOUDY    28  24  84 CALM      30.31F
JACKSONVILLE*  CLOUDY    31  26  82 CALM      30.30S
PITTSFIELD*    CLOUDY    30  27  87 CALM      30.30S
$$

ILZ028>032-037-038-041>044-048-051>054-059>061-190700-
CENTRAL ILLINOIS

CITY           SKY/WX    TMP DP  RH WIND       PRES   REMARKS
PONTIAC        CLEAR     21  18  91 W3        30.30S
BLOOMINGTON    CLEAR     21  19  92 CALM      30.29S
DECATUR        CLOUDY    27  22  81 CALM      30.29S
PEORIA         PTCLDY    23  17  78 CALM      30.30F
6HR MIN TEMP:  23; 6HR MAX TEMP:  27;

LACON*         CLEAR     17  14  89 CALM      30.30S FOG
LINCOLN*       MOCLDY    27  22  81 N3        30.31F
SPRINGFIELD    CLOUDY    29  22  75 CALM      30.31R
6HR MIN TEMP:  29; 6HR MAX TEMP:  30;

TAYLORVILLE    CLOUDY    30  27  86 CALM      30.30S
$$

ILZ033-039-045-046-055>057-062-063-190700-
EAST-CENTRAL ILLINOIS

CITY           SKY/WX    TMP DP  RH WIND       PRES   REMARKS
CHAMPAIGN      CLEAR     20  16  84 N6        30.28S WCI  12
DANVILLE*      CLEAR     21  19  91 N5        30.25S WCI  14
MATTOON        CLOUDY    27  22  81 W5        30.27S WCI  22
PARIS*         CLOUDY    28  24  85 CALM      30.29S
$$

ILZ079-100>102-190700-
SOUTHWEST ILLINOIS

CITY           SKY/WX    TMP DP  RH WIND       PRES   REMARKS
ALTON          CLOUDY    31  26  81 CALM      30.30S
BELLEVILLE     CLOUDY    33  28  83 NE1       30.30R
CAHOKIA*       CLOUDY    34  28  79 CALM      30.30S
SPARTA*        CLOUDY    32  28  86 CALM      30.30S
$$

ILZ064>066-069>071-074>076-080>082-084>086-088>090-092>094-190700-
SOUTH-CENTRAL ILLINOIS

CITY           SKY/WX    TMP DP  RH WIND       PRES   REMARKS
CARBONDALE     PTCLDY    32  28  85 CALM      30.28F
6HR MIN TEMP:  32; 6HR MAX TEMP:  34;

CAIRO*         CLOUDY    37  33  88 N3        30.28S
EFFINGHAM*     CLEAR     28  23  79 CALM      30.30F HAZE
MT. VERNON     CLOUDY    28  23  80 CALM      30.29F
CENTRALIA*     CLOUDY    31  27  85 CALM      30.29S
SALEM*         CLOUDY    33  28  81 CALM      30.29F
METROPOLIS*    CLOUDY    35  33  95 CALM      30.27S
$$

ILZ067-068-072-073-078-083-087-091-190700-
SOUTHEAST ILLINOIS

CITY           SKY/WX    TMP DP  RH WIND       PRES   REMARKS
LAWRENCEVILLE  CLOUDY    30  24  78 N3        30.29F
FLORA*         CLEAR     31  27  84 CALM      30.30S
FAIRFIELD*     CLOUDY    31  27  84 CALM      30.28F
HARRISBURG*    CLOUDY    32  28  83 N3        30.29F
ROBINSON*      MOCLDY    28  26  90 CALM      30.31S
CARMI*         CLOUDY    33  29  85 N6        30.28F WCI  27
$$

ABBREVIATIONS USED IN REMARKS
   TC - TEMPERATURE IN CELSIUS
  WCI - WIND CHILL INDEX
   HX - HEAT INDEX
  VSB - VISIBILITY
$$



USA.gov is the U.S. government's official web portal to all federal, state and local government web resources and services.